This demonstration page uses our WeatherBlox Daily Observations layout. Learn more.

Left ArrowRight Arrow

53.62937, 11.41316

Hourly Observations for September 4, 2021

Temp ( °F °C ) Dew Point ( °F °C ) Humidity (%) Winds ( mph kmh ) Pressure ( in mb ) Visibility ( mi km ) Precip ( " mm )
7:50 am 07:50 Mostly Cloudy 54 12 52 11 94 94 VRB 2 4 30.06 1018 30 48 N/A
8:20 am 08:20 Mostly Cloudy 55 13 52 11 88 88 VRB 1 2 30.06 1018 30 48 N/A
8:50 am 08:50 Mostly Cloudy 55 13 52 11 88 88 VRB 1 2 30.06 1018 30 48 N/A
9:20 am 09:20 Mostly Cloudy 57 14 52 11 82 82 VRB 2 4 30.06 1018 30 48 N/A
9:50 am 09:50 Partly Cloudy 59 15 52 11 77 77 VRB 2 4 30.09 1019 30 48 N/A
10:20 am 10:20 Mostly Cloudy 59 15 52 11 77 77 NNW 3 6 30.09 1019 30 48 N/A
10:50 am 10:50 Mostly Cloudy 61 16 50 10 68 68 N 3 6 30.09 1019 30 48 N/A
11:20 am 11:20 Mostly Cloudy 61 16 50 10 68 68 N 6 9 30.09 1019 30 48 N/A
11:50 am 11:50 Partly Cloudy 63 17 50 10 64 64 VRB 2 4 30.09 1019 30 48 N/A
12:20 pm 12:20 Partly Cloudy 64 18 52 11 64 64 N 5 7 30.09 1019 30 48 N/A
12:50 pm 12:50 Mostly Cloudy 64 18 54 12 68 68 NNE 3 6 30.09 1019 30 48 N/A
1:20 pm 13:20 Partly Cloudy 64 18 52 11 64 64 N 7 11 30.09 1019 30 48 N/A
1:50 pm 13:50 Partly Cloudy 64 18 52 11 64 64 VRB 2 4 30.09 1019 30 48 N/A
2:20 pm 14:20 Partly Cloudy 64 18 54 12 68 68 NNE 5 7 30.09 1019 30 48 N/A
2:50 pm 14:50 Partly Cloudy 66 19 54 12 64 64 VRB 6 9 30.09 1019 30 48 N/A
3:20 pm 15:20 Partly Cloudy 64 18 54 12 68 68 NE 8 13 30.09 1019 30 48 N/A
3:50 pm 15:50 Partly Cloudy 66 19 54 12 64 64 NE 7 11 30.09 1019 30 48 N/A
4:20 pm 16:20 Partly Cloudy 66 19 52 11 60 60 ENE 6 9 30.09 1019 30 48 N/A
4:50 pm 16:50 Partly Cloudy 68 20 54 12 60 60 NE 7 11 30.09 1019 30 48 N/A
5:20 pm 17:20 Partly Cloudy 66 19 54 12 64 64 NE 12 19 30.09 1019 30 48 N/A
5:50 pm 17:50 Mostly Sunny 64 18 54 12 68 68 NNE 10 17 30.12 1020 30 48 N/A
6:20 pm 18:20 Mostly Sunny 64 18 55 13 73 73 NE 10 17 30.12 1020 30 48 N/A
6:50 pm 18:50 Mostly Sunny 63 17 57 14 83 83 NNE 10 17 30.12 1020 30 48 N/A
7:20 pm 19:20 Mostly Sunny 63 17 57 14 83 83 NE 10 17 30.12 1020 30 48 N/A
7:50 pm 19:50 Mostly Sunny 61 16 55 13 83 83 NE 9 15 30.12 1020 30 48 N/A
8:20 pm 20:20 Mostly Clear 59 15 55 13 88 88 NE 8 13 30.12 1020 7 11 N/A
8:50 pm 20:50 Mostly Clear 57 14 55 13 94 94 NE 7 11 30.15 1021 7 11 N/A

Powered by AerisWeather